Tracking 26922 objects as of 29-Jan-2023
HD Live streaming from Space Station
objects crossing your sky now

SL-19 DEB

Track SL-19 DEB now!
10-day predictions


NORAD ID: 23479
Int'l Code: 1994-085C
Perigee: 1,863.7 km
Apogee: 2,026.6 km
Inclination: 65.0 °
Period: 125.8 minutes
Semi major axis: 8316 km
RCS: 0.2064 m2 (medium)
Launch date: December 26, 1994
Source: Commonwealth of Independent States (former USSR) (CIS)
Launch site: TYURATAM MISSILE AND SPACE COMPLEX (TTMTR)

Note: This is SATELLITE DEBRIS
Your satellite tracking list
Your tracking list is empty




NASA's NSSDC Master Catalog

Two Line Element Set (TLE):
1 23479U 94085C   23028.79218998  .00001758  00000-0  42626-1 0  9991
2 23479  65.0438 118.8821 0097946 265.4585 181.0134 11.44776413171759
Source of the keplerian elements: AFSPC